Location: ??
(35.5052°N, 139.7262°E)
Time: 03:32:43
(UTC+00:00)

GEOS 3 Rocket - Pass Details

Date: 20 June 2021
Orbit: 779 x 840 km, 115.0° (Epoch: 26 July)

Event Time Altitude Azimuth Distance (km) Brightness Sun altitude
Exits shadow 14:12:42 63° 21° (NNE) 932 4.0 -30.6°
Drops below altitude 10° 14:17:30 10° 333° (NNW) 2,453 6.9 -30.8°
Sets 14:19:50 0° 330° (NNW) 3,386 7.8 -30.8°
